Regional Weather Roundup
Issued by NWS

Home | Current Version | Previous Version | Graphics & Text | Print | Product List | Glossary On
Versions: 1 2 3 4 5 6 7 8 9 10 11 12 13 14 15 16 17 18 19 20 21 22 23 24 25 26 27 28 29 30 31 32 33 34 35 36 37 38 39 40 41 42 43 44 45 46 47 48 49 50
000
ASUS45 KABQ 300601
RWRNM
WEATHER ROUNDUP FOR NEW MEXICO
NATIONAL WEATHER SERVICE ALBUQUERQUE NM
1200 AM MDT SAT AUG 30 2014

NOTE: "FAIR" MEANS FEW OR NO CLOUDS BELOW 12,000 FEET AGL WITH NO
       SIGNIFICANT WEATHER OR OBSTRUCTIONS TO VISION.

      THIS PRODUCT IS RELEASED AS TWO VERSIONS.  ONE VERSION NEAR
      THE TOP OF THE HOUR CONTAINING PRELIMINARY DATA FROM ALBUQUERQUE
      AND OTHER STATIONS.  A FINAL VERSION WITH ADDITIONAL DATA IS
      ISSUED ABOUT 10 MINUTES AFTER THE HOUR.

NMZ501-503-504-510>518-300700-
NORTHWEST PLATEAU/NORTHCENTRAL MOUNTAINS

CITY           SKY/WX    TMP DP  RH WIND       PRES   REMARKS
FARMINGTON     CLEAR     61  42  49 N3        30.12S
6HR MIN TEMP:  61; 6HR MAX TEMP:  82;

LOS ALAMOS     CLEAR     65  34  30 W9        30.27S
SANTA FE       CLEAR     60  43  53 CALM      30.21R
6HR MIN TEMP:  58; 6HR MAX TEMP:  80;

ANGEL FIRE     CLOUDY    47  41  80 NW5       30.40S

$$
NMZ402-403-502-505>509-300700-
WESTCENTRAL MOUNTAINS/SOUTHWEST MOUNTAINS

CITY           SKY/WX    TMP DP  RH WIND       PRES   REMARKS
GALLUP         CLEAR     57  31  37 NE3       30.22S
6HR MIN TEMP:  56; 6HR MAX TEMP:  83;

SILVER CITY    CLEAR     73  39  29 E5        30.14R

$$
NMZ407-409-411-412-300700-
SOUTHERN DESERTS

CITY           SKY/WX    TMP DP  RH WIND       PRES   REMARKS
LORDSBURG      FAIR      70  43  37 CALM      30.03S
DEMING         PTCLDY    75  43  31 W6        30.04R
6HR MIN TEMP:  75; 6HR MAX TEMP:  93;

LAS CRUCES     CLEAR     76  41  28 SW6       30.06F
HOLLOMAN AFB   CLEAR     70  46  42 CALM      30.02F
ALAMOGORDO     CLEAR     68  45  42 E7        30.04F
T OR C         PTCLDY    70  49  47 NW6       30.08S
6HR MIN TEMP:  70; 6HR MAX TEMP:  88;


$$
NMZ519>523-300700-
CENTRAL VALLEYS/CENTRAL HIGHLANDS

CITY           SKY/WX    TMP DP  RH WIND       PRES   REMARKS
ALBUQUERQUE    CLEAR     73  41  31 CALM      30.14S
6HR MIN TEMP:  70; 6HR MAX TEMP:  85;

DOUBLE EAGLE   CLEAR     60  40  47 W8        30.18S
CLINES CORNERS CLEAR     61  41  47 S10       30.26S
6HR MIN TEMP:  60; 6HR MAX TEMP:  77;

BELEN          FAIR      62  41  46 CALM      30.13S
6HR MIN TEMP:  62; 6HR MAX TEMP:  84;

SOCORRO        FAIR      67  52  57 W5        30.09S
6HR MIN TEMP:  67; 6HR MAX TEMP:  86;


$$
NMZ524>526-539-540-300700-
SOUTHCENTRAL MOUNTAINS

CITY           SKY/WX    TMP DP  RH WIND       PRES   REMARKS
RUIDOSO        NOT AVBL

$$
NMZ527>531-300700-
NORTHEAST HIGHLANDS/NORTHEAST PLAINS

CITY           SKY/WX    TMP DP  RH WIND       PRES   REMARKS
LAS VEGAS      PTCLDY    54  41  61 NE7       30.26R
6HR MIN TEMP:  54; 6HR MAX TEMP:  76;

RATON          CLOUDY    60  47  61 N14       30.26F
6HR MIN TEMP:  60; 6HR MAX TEMP:  80; 6HR PCP: TRACE;

CLAYTON        CLOUDY    68  48  48 NW18G25   30.18R
6HR MIN TEMP:  63; 6HR MAX TEMP:  83;


$$
NMZ532>537-300700-
EASTCENTRAL PLAINS

CITY           SKY/WX    TMP DP  RH WIND       PRES   REMARKS
TUCUMCARI      PTCLDY    66  40  38 W3        30.06R
6HR MIN TEMP:  66; 6HR MAX TEMP:  90;

CANNON AFB     CLEAR     67  45  44 SW6       30.10R
6HR MIN TEMP:  67; 6HR MAX TEMP:  87;

CLOVIS AIRPORT   N/A     63  45  51 SE3       30.13S

$$
NMZ028-029-538-300700-
SOUTHEAST PLAINS

CITY           SKY/WX    TMP DP  RH WIND       PRES   REMARKS
ROSWELL        CLEAR     72  55  55 E3        30.05R
6HR MIN TEMP:  70; 6HR MAX TEMP:  91;

CARLSBAD       MOCLDY    78  53  41 SW3       30.01R
6HR MIN TEMP:  77; 6HR MAX TEMP:  95;

HOBBS          FAIR      75  63  64 SE10      30.07S


$$


USA.gov is the U.S. government's official web portal to all federal, state and local government web resources and services.